リニア彗星

187P/LINEAR (2008)

English version
Home page
Total 6,336 html files since Dec. 4, 1995
Updated on June 17, 2008

---------------------------------------------------------------------

・ プロフィール

符号 187P/2007 E3
検出日 2007年3月9日
検出光度 21.2等
検出者 E. J. Christensen (Mount Lemmon Survey)

・ 写真集

・ 軌道要素

                    Epoch = 2008 Oct. 21.0 TT
     T = 2008 Oct.  6.3021 TT         Peri. = 131.9564
     e = 0.170548                     Node  = 112.0027  2000.0
     q = 3.693255 AU                  Incl. =  13.7323
       a =  4.452644 AU    n = 0.1049004    P =   9.40 years

・ 星図

・ 光度変化

        m1 = -13.0 + 5 logΔ + 50.0 log r

---------------------------------------------------------------------

軌道要素は G. V. Williams の計算によるもので、 IAUC 8827 に掲載されたものです。
星図は StellaNavigator Ver.2.0 for Windows (アストロアーツ 編著 / アスキー出版局刊) で作成したものです。
光度グラフはComet for Windowsで作成したものです。

---------------------------------------------------------------------

Copyright(C) 1995-2008 Seiichi Yoshida (comet@aerith.net). All rights reserved.